Weather History for Wahoo, NE

Change the Weather History Date:

Saturday, November 2, 2013

  Actual Average Record
Temperature  
Mean Temperature 48 °F -  
Max Temperature 59 °F 55 °F 77 °F (1964)
Min Temperature 35 °F 34 °F 9 °F (1991)
Degree Days  
Heating Degree Days 18    
Moisture  
Dew Point 32 °F    
Average Humidity 63    
Maximum Humidity 86    
Minimum Humidity 29    
Precipitation  
Precipitation 0.00 in - - ()
Sea Level Pressure  
Sea Level Pressure 30.11 in    
Wind  
Wind Speed 10 mph (West)    
Max Wind Speed 15 mph    
Max Gust Speed 20 mph    
Visibility 10 miles    
Events      
Averages and records for this station are not official NWS values.
T = Trace of Precipitation, MM = Missing Value Source: NWS Daily Summary

Daily Weather History Graph

Daily Weather History Graph

Search for Another Location

Airport:

Trip Planner

Search our weather history database for the weather conditions in past years. The results will help you decide how hot, cold, wet, or windy it might be!

Date:

Astronomy

Nov. 02, 2013 Rise Set
Actual Time 7:59 AM CDT 6:20 PM CDT
Civil Twilight 7:30 AM CDT 6:48 PM CDT
Nautical Twilight 6:57 AM CDT 7:21 PM CDT
Astronomical Twilight 6:25 AM CDT 7:53 PM CDT
Moon 6:57 AM CDT (11/2) 5:52 PM CDT (11/2)
Length of Visible Light 11h 18m
Length of Day
10h 21m
Waning Crescent, 1% of the Moon is Illuminated
Nov 2
Waning Crescent
Nov 3
New
Nov 9
First Quarter
Nov 17
Full
Nov 25
Last Quarter

Hourly Weather History & Observations

Time (CDT) Temp. Windchill Dew Point Humidity Pressure Visibility Wind Dir Wind Speed Gust Speed Precip Events Conditions
12:15 AM 44.1 °F 37.7 °F 35.6 °F 72% 30.01 in 10.0 mi NW 12.7 mph - N/A   Clear
12:35 AM 43.0 °F 37.7 °F 35.6 °F 75% 30.01 in 10.0 mi NW 9.2 mph - N/A   Clear
12:55 AM 42.1 °F 36.1 °F 36.0 °F 79% 30.02 in 10.0 mi NW 10.4 mph - N/A   Clear
1:15 AM 41.7 °F 36.1 °F 36.1 °F 81% 30.03 in 10.0 mi WNW 9.2 mph - N/A   Clear
1:35 AM 41.9 °F 35.4 °F 35.8 °F 79% 30.03 in 10.0 mi NW 11.5 mph - N/A   Clear
1:55 AM 41.4 °F 34.7 °F 35.6 °F 80% 30.04 in 10.0 mi NW 11.5 mph - N/A   Clear
2:15 AM 41.5 °F 35.4 °F 35.6 °F 79% 30.05 in 10.0 mi NW 10.4 mph - N/A   Clear
2:35 AM 41.0 °F 34.3 °F 35.6 °F 81% 30.05 in 10.0 mi WNW 11.5 mph - N/A   Clear
2:55 AM 41.0 °F 33.5 °F 35.2 °F 80% 30.06 in 10.0 mi WNW 13.8 mph - N/A   Clear
3:15 AM 40.6 °F 33.8 °F 34.7 °F 79% 30.06 in 10.0 mi WNW 11.5 mph - N/A   Clear
3:35 AM 40.3 °F 33.0 °F 34.5 °F 80% 30.07 in 10.0 mi WNW 12.7 mph - N/A   Clear
3:55 AM 40.3 °F 32.2 °F 34.0 °F 78% 30.07 in 10.0 mi WNW 15.0 mph 19.6 mph N/A   Clear
4:15 AM 40.1 °F 32.7 °F 33.8 °F 78% 30.08 in 10.0 mi WNW 12.7 mph - N/A   Clear
4:35 AM 39.4 °F 32.3 °F 33.3 °F 79% 30.09 in 10.0 mi WNW 11.5 mph - N/A   Clear
4:55 AM 38.7 °F 31.4 °F 32.9 °F 80% 30.09 in 10.0 mi WNW 11.5 mph - N/A   Clear
5:15 AM 38.5 °F 30.7 °F 32.9 °F 80% 30.10 in 10.0 mi WNW 12.7 mph - N/A   Clear
5:35 AM 38.3 °F 30.1 °F 32.4 °F 79% 30.11 in 10.0 mi NW 13.8 mph - N/A   Clear
5:55 AM 37.8 °F 29.8 °F 32.0 °F 80% 30.12 in 10.0 mi NW 12.7 mph - N/A   Clear
6:15 AM 37.6 °F 30.0 °F 32.0 °F 80% 30.12 in 10.0 mi NW 11.5 mph - N/A   Clear
6:35 AM 37.4 °F 28.9 °F 32.0 °F 81% 30.13 in 10.0 mi NW 13.8 mph - N/A   Clear
6:55 AM 36.9 °F 29.1 °F 32.0 °F 83% 30.13 in 10.0 mi NW 11.5 mph - N/A   Clear
7:15 AM 36.7 °F 28.9 °F 32.0 °F 83% 30.13 in 10.0 mi NW 11.5 mph - N/A   Clear
7:35 AM 36.0 °F 28.0 °F 32.0 °F 86% 30.14 in 10.0 mi NW 11.5 mph - N/A   Clear
7:55 AM 36.1 °F 29.3 °F 32.0 °F 85% 30.15 in 10.0 mi WNW 9.2 mph - N/A   Clear
8:15 AM 36.5 °F 28.7 °F 32.0 °F 84% 30.16 in 10.0 mi WNW 11.5 mph - N/A   Clear
8:35 AM 37.4 °F 29.8 °F 32.0 °F 81% 30.16 in 10.0 mi WNW 11.5 mph - N/A   Clear
8:55 AM 37.9 °F 30.5 °F 32.4 °F 80% 30.17 in 10.0 mi WNW 11.5 mph - N/A   Clear
9:15 AM 39.4 °F 32.3 °F 32.7 °F 77% 30.17 in 10.0 mi WNW 11.5 mph - N/A   Clear
9:35 AM 41.2 °F 34.5 °F 33.3 °F 73% 30.17 in 10.0 mi WNW 11.5 mph - N/A   Clear
9:55 AM 42.8 °F 37.0 °F 33.4 °F 70% 30.19 in 10.0 mi WNW 10.4 mph - N/A   Clear
10:15 AM 44.1 °F 39.5 °F 33.3 °F 66% 30.19 in 10.0 mi NW 8.1 mph - N/A   Clear
10:35 AM 45.3 °F 41.1 °F 33.6 °F 64% 30.19 in 10.0 mi WNW 8.1 mph - N/A   Clear
10:55 AM 46.0 °F 41.9 °F 33.3 °F 61% 30.19 in 10.0 mi NW 8.1 mph - N/A   Clear
12:15 PM 52.3 °F - 33.6 °F 49% 30.19 in 10.0 mi WNW 4.6 mph - N/A   Clear
12:35 PM 53.2 °F - 32.4 °F 45% 30.19 in 10.0 mi NNW 6.9 mph - N/A   Clear
12:55 PM 54.7 °F - 32.4 °F 43% 30.19 in 10.0 mi WNW 8.1 mph - N/A   Clear
1:15 PM 55.4 °F - 32.0 °F 41% 30.17 in 10.0 mi NW 6.9 mph - N/A   Clear
1:35 PM 56.3 °F - 32.2 °F 40% 30.17 in 10.0 mi NW 5.8 mph - N/A   Clear
1:55 PM 57.2 °F - 31.6 °F 38% 30.16 in 10.0 mi West 10.4 mph - N/A   Clear
2:15 PM 57.9 °F - 30.6 °F 35% 30.15 in 10.0 mi WNW 9.2 mph - N/A   Clear
2:35 PM 58.1 °F - 30.6 °F 35% 30.14 in 10.0 mi NW 9.2 mph - N/A   Clear
2:55 PM 58.3 °F - 29.3 °F 33% 30.13 in 10.0 mi West 10.4 mph - N/A   Clear
3:15 PM 59.0 °F - 29.7 °F 33% 30.13 in 10.0 mi WNW 11.5 mph - N/A   Clear
3:35 PM 59.0 °F - 28.9 °F 32% 30.12 in 10.0 mi WNW 6.9 mph - N/A   Clear
3:55 PM 59.4 °F - 28.2 °F 31% 30.12 in 10.0 mi WNW 9.2 mph - N/A   Clear
4:15 PM 59.4 °F - 27.3 °F 29% 30.11 in 10.0 mi West 6.9 mph - N/A   Clear
4:35 PM 59.4 °F - 27.9 °F 30% 30.11 in 10.0 mi West 4.6 mph - N/A   Clear
4:55 PM 59.0 °F - 28.2 °F 31% 30.11 in 10.0 mi West 5.8 mph - N/A   Clear
5:15 PM 58.6 °F - 27.9 °F 31% 30.10 in 10.0 mi West 4.6 mph - N/A   Clear
5:35 PM 57.9 °F - 28.9 °F 33% 30.10 in 10.0 mi WSW 4.6 mph - N/A   Clear
5:55 PM 56.3 °F - 31.5 °F 39% 30.09 in 10.0 mi SSW 3.5 mph - N/A   Clear
6:15 PM 54.5 °F - 28.6 °F 37% 30.09 in 10.0 mi SSW 4.6 mph - N/A   Clear
6:35 PM 51.3 °F - 30.4 °F 45% 30.09 in 10.0 mi South 3.5 mph - N/A   Clear
6:55 PM 46.8 °F - 30.0 °F 52% 30.09 in 10.0 mi South 4.6 mph - N/A   Clear
7:15 PM 47.1 °F - 30.7 °F 53% 30.09 in 10.0 mi South 5.8 mph - N/A   Clear
7:35 PM 46.6 °F - 30.6 °F 54% 30.09 in 10.0 mi South 6.9 mph - N/A   Clear
7:55 PM 43.3 °F 39.2 °F 30.6 °F 61% 30.09 in 10.0 mi South 6.9 mph - N/A   Clear
8:15 PM 43.3 °F 39.2 °F 30.6 °F 61% 30.09 in 10.0 mi South 6.9 mph - N/A   Clear
8:35 PM 42.8 °F 38.0 °F 30.4 °F 62% 30.08 in 10.0 mi South 8.1 mph - N/A   Clear
8:55 PM 41.9 °F 36.9 °F 30.9 °F 65% 30.08 in 10.0 mi South 8.1 mph - N/A   Clear
9:15 PM 40.1 °F 35.3 °F 30.2 °F 68% 30.08 in 10.0 mi South 6.9 mph - N/A   Clear
9:35 PM 40.1 °F 34.7 °F 30.2 °F 68% 30.08 in 10.0 mi South 8.1 mph - N/A   Clear
9:55 PM 39.6 °F 34.0 °F 30.2 °F 69% 30.07 in 10.0 mi SSE 8.1 mph - N/A   Clear
10:15 PM 39.4 °F 34.5 °F 30.2 °F 70% 30.07 in 10.0 mi SSE 6.9 mph - N/A   Clear
10:35 PM 38.5 °F 34.1 °F 30.2 °F 72% 30.07 in 10.0 mi SSE 5.8 mph - N/A   Clear
10:55 PM 37.0 °F 32.4 °F 29.8 °F 75% 30.07 in 10.0 mi SSE 5.8 mph - N/A   Clear
11:15 PM 37.9 °F 32.7 °F 30.2 °F 74% 30.08 in 10.0 mi South 6.9 mph - N/A   Clear
11:35 PM 36.9 °F 33.1 °F 29.8 °F 76% 30.08 in 10.0 mi SSE 4.6 mph - N/A   Clear
11:55 PM 35.8 °F 29.4 °F 30.2 °F 80% 30.07 in 10.0 mi SE 8.1 mph - N/A   Clear